Regional Weather Roundup
Issued by NWS

Home | Current Version | Previous Version | Graphics & Text | Print | Product List | Glossary On
Versions: 1 2 3 4 5 6 7 8 9 10 11 12 13 14 15 16 17 18 19 20 21 22 23 24 25 26 27 28 29 30 31 32 33 34 35 36 37 38 39 40 41 42 43 44 45 46 47 48 49 50
000
ASUS43 KBIS 260031
RWRND
NORTH DAKOTA REGIONAL WEATHER ROUNDUP
NATIONAL WEATHER SERVICE EASTERN NORTH DAKOTA/GRAND FORKS ND
700 PM CDT THU MAY 25 2017

  NOTE: "FAIR" INDICATES FEW OR NO CLOUDS BELOW 12,000 FEET WITH NO
  SIGNIFICANT WEATHER AND/OR OBSTRUCTIONS TO VISIBILITY.

NDZ001>003-009>011-017-260100-
...NORTHWEST NORTH DAKOTA...

CITY           SKY/WX    TMP DP  RH WIND       PRES   REMARKS
WILLISTON      CLOUDY    62  41  46 W15       29.48R
6HR MIN TEMP:  58; 6HR MAX TEMP:  63; 6HR PCP: TRACE;

MINOT          CLOUDY    63  45  51 SW18G30   29.45R
MINOT AFB      PTSUNNY   62  45  53 W17G24    29.44R
6HR MIN TEMP:  61; 6HR MAX TEMP:  69;

$$

NDZ018>021-031>035-040>046-260100-
...SOUTHWEST NORTH DAKOTA...

CITY           SKY/WX    TMP DP  RH WIND       PRES   REMARKS
BISMARCK       FAIR      71  42  35 W22G29    29.50R
DICKINSON      CLOUDY    57  42  57 W24G30    29.55R
GARRISON         N/A     62  44  51 W24G33    29.48R
HETTINGER      PTSUNNY   59  42  53 W20G32    29.61R
$$

NDZ004>008-012>016-024-026-027-054-260100-
...NORTHEAST NORTH DAKOTA...

CITY           SKY/WX    TMP DP  RH WIND       PRES   REMARKS
GRAND FORKS    PTSUNNY   68  51  54 SE17G24   29.48S
GRAND FORKS AF FAIR      66  50  55 S18G26    29.47F
DEVILS LAKE    FAIR      70  49  47 S14       29.43S
$$

NDZ022-023-025-028>030-036>039-047>053-260100-
...SOUTHEAST NORTH DAKOTA...

CITY           SKY/WX    TMP DP  RH WIND       PRES   REMARKS
JAMESTOWN      FAIR      71  49  45 S9        29.46R
FARGO          CLOUDY    68  50  52 S18G24    29.50S
WAHPETON       CLOUDY    64  50  59 SE18      29.52S
$$




USA.gov is the U.S. government's official web portal to all federal, state and local government web resources and services.